User: anonymous   Login
Location: Bergnerzell
(49.1816°N, 10.2565°E)
Time: 17:32:58
(UTC+00:00)
Language:

Nadezhda 1 Rocket - Orbit

View from above orbital plane
View from above orbital plane
View from above satellite
View from above satellite

Ground track
Ground track

The orbit data is extracted from the following two-line orbital elements,

1 20104U 89050B   24200.53676890  .00000088  00000-0  72037-4 0  9990
2 20104  82.9548  50.5127 0044509 132.8232 227.6680 13.77483163760915
Epoch (UTC): 18 July 2024 12:52:56
Eccentricity: 0.0044509
inclination: 82.9548°
perigee height: 940 km
apogee height: 1005 km
right ascension of ascending node: 50.5127°
argument of perigee: 132.8232°
revolutions per day: 13.77483163
mean anomaly at epoch: 227.6680°
orbit number at epoch: 76091

The dashed part of the orbit path shows where the satellite is in the earth's shadow,  

DLR